Time,TemperatureF,DewpointF,PressureIn,WindDirection,WindDirectionDegrees,WindSpeedMPH,WindSpeedGustMPH,Humidity,HourlyPrecipIn,Conditions,Clouds,dailyrainin,SolarRadiationWatts/m^2,SoftwareType,DateUTC
2013-09-01 00:00:00,75.8,69.2,29.84,SSE,147,3.0,3.0,80,0.00,,,0.00,0,Wunderground v.1.15,2013-09-01 04:00:00,
2013-09-01 00:01:00,75.8,69.2,29.83,ESE,108,0.0,3.0,80,0.00,,,0.00,0,Wunderground v.1.15,2013-09-01 04:01:00,
2013-09-01 00:02:00,75.8,69.2,29.83,ESE,108,4.0,4.0,80,0.00,,,0.00,0,Wunderground v.1.15,2013-09-01 04:02:00,
2013-09-01 00:04:00,75.8,69.2,29.83,South,174,3.0,4.0,80,0.00,,,0.00,0,Wunderground v.1.15,2013-09-01 04:04:00,
2013-09-01 00:07:00,75.8,69.2,29.83,WSW,240,0.0,4.0,80,0.00,,,0.00,0,Wunderground v.1.15,2013-09-01 04:07:00,
2013-09-01 00:14:00,75.7,69.1,29.83,SE,132,0.0,1.0,80,0.00,,,0.00,0,Wunderground v.1.15,2013-09-01 04:14:00,
2013-09-01 00:19:00,75.6,69.0,29.83,SE,135,1.0,2.0,80,0.00,,,0.00,0,Wunderground v.1.15,2013-09-01 04:19:00,
2013-09-01 00:25:00,75.7,69.1,29.83,SSE,164,3.0,4.0,80,0.00,,,0.00,0,Wunderground v.1.15,2013-09-01 04:25:00,
2013-09-01 00:27:00,75.6,69.0,29.83,SSE,159,3.0,4.0,80,0.00,,,0.00,0,Wunderground v.1.15,2013-09-01 04:27:00,
2013-09-01 00:34:00,75.5,68.9,29.83,South,185,2.0,2.0,80,0.00,,,0.00,0,Wunderground v.1.15,2013-09-01 04:34:00,
2013-09-01 00:39:00,75.5,68.9,29.83,SSE,167,2.0,6.0,80,0.00,,,0.00,0,Wunderground v.1.15,2013-09-01 04:39:00,
2013-09-01 00:45:00,75.4,68.8,29.83,SE,142,2.0,3.0,80,0.00,,,0.00,0,Wunderground v.1.15,2013-09-01 04:45:00,
2013-09-01 00:51:00,75.2,68.6,29.82,SE,138,4.0,4.0,80,0.00,,,0.00,0,Wunderground v.1.15,2013-09-01 04:51:00,
2013-09-01 00:56:00,75.3,68.7,29.83,SSE,150,0.0,4.0,80,0.00,,,0.00,0,Wunderground v.1.15,2013-09-01 04:56:00,
2013-09-01 01:02:00,75.1,68.5,29.83,SSE,148,0.0,3.0,80,0.00,,,0.00,0,Wunderground v.1.15,2013-09-01 05:02:00,
2013-09-01 01:07:00,75.1,68.5,29.83,South,179,6.0,6.0,80,0.00,,,0.00,0,Wunderground v.1.15,2013-09-01 05:07:00,
2013-09-01 01:14:00,75.0,68.8,29.82,South,179,1.0,1.0,81,0.00,,,0.00,0,Wunderground v.1.15,2013-09-01 05:14:00,
2013-09-01 01:19:00,75.0,68.8,29.83,ESE,117,1.0,5.0,81,0.00,,,0.00,0,Wunderground v.1.15,2013-09-01 05:19:00,
2013-09-01 01:25:00,74.8,68.6,29.82,South,176,2.0,4.0,81,0.00,,,0.00,0,Wunderground v.1.15,2013-09-01 05:25:00,
2013-09-01 01:31:00,74.7,68.5,29.82,ESE,123,1.0,2.0,81,0.00,,,0.00,0,Wunderground v.1.15,2013-09-01 05:31:00,
2013-09-01 01:36:00,74.7,68.5,29.82,SE,131,1.0,2.0,81,0.00,,,0.00,0,Wunderground v.1.15,2013-09-01 05:36:00,
2013-09-01 01:41:00,74.7,68.8,29.82,SE,131,0.0,3.0,82,0.00,,,0.00,0,Wunderground v.1.15,2013-09-01 05:41:00,
2013-09-01 01:46:00,74.6,68.7,29.82,SSE,154,1.0,3.0,82,0.00,,,0.00,0,Wunderground v.1.15,2013-09-01 05:46:00,
2013-09-01 01:51:00,74.5,68.6,29.82,SSE,156,2.0,2.0,82,0.00,,,0.00,0,Wunderground v.1.15,2013-09-01 05:51:00,
2013-09-01 01:56:00,74.4,68.5,29.81,SE,136,2.0,2.0,82,0.00,,,0.00,0,Wunderground v.1.15,2013-09-01 05:56:00,
2013-09-01 02:01:00,74.4,68.9,29.82,South,186,0.0,0.0,83,0.00,,,0.00,0,Wunderground v.1.15,2013-09-01 06:01:00,
2013-09-01 02:06:00,74.3,68.8,29.81,South,186,3.0,3.0,83,0.00,,,0.00,0,Wunderground v.1.15,2013-09-01 06:06:00,
2013-09-01 02:11:00,74.3,68.8,29.81,South,177,0.0,4.0,83,0.00,,,0.00,0,Wunderground v.1.15,2013-09-01 06:11:00,
2013-09-01 02:16:00,74.2,68.7,29.81,South,173,0.0,4.0,83,0.00,,,0.00,0,Wunderground v.1.15,2013-09-01 06:16:00,
2013-09-01 02:21:00,74.1,68.6,29.81,South,173,0.0,1.0,83,0.00,,,0.00,0,Wunderground v.1.15,2013-09-01 06:21:00,
2013-09-01 02:26:00,74.0,68.9,29.81,South,170,0.0,4.0,84,0.00,,,0.00,0,Wunderground v.1.15,2013-09-01 06:26:00,
2013-09-01 02:31:00,73.9,68.8,29.81,WNW,297,2.0,4.0,84,0.00,,,0.00,0,Wunderground v.1.15,2013-09-01 06:31:00,
2013-09-01 02:36:00,73.9,68.8,29.81,WNW,294,0.0,4.0,84,0.00,,,0.00,0,Wunderground v.1.15,2013-09-01 06:36:00,
2013-09-01 02:41:00,73.9,68.8,29.81,SE,136,0.0,4.0,84,0.00,,,0.00,0,Wunderground v.1.15,2013-09-01 06:41:00,
2013-09-01 02:46:00,73.9,68.8,29.81,East,89,0.0,4.0,84,0.00,,,0.00,0,Wunderground v.1.15,2013-09-01 06:46:00,
2013-09-01 02:51:00,73.8,69.0,29.81,East,90,0.0,0.0,85,0.00,,,0.00,0,Wunderground v.1.15,2013-09-01 06:51:00,
2013-09-01 02:56:00,73.9,69.1,29.81,East,89,0.0,2.0,85,0.00,,,0.00,0,Wunderground v.1.15,2013-09-01 06:56:00,
2013-09-01 03:01:00,73.8,69.0,29.81,East,90,1.0,1.0,85,0.00,,,0.00,0,Wunderground v.1.15,2013-09-01 07:01:00,
2013-09-01 03:06:00,73.7,68.9,29.81,East,89,0.0,3.0,85,0.00,,,0.00,0,Wunderground v.1.15,2013-09-01 07:06:00,
2013-09-01 03:11:00,73.7,68.9,29.81,East,90,0.0,1.0,85,0.00,,,0.00,0,Wunderground v.1.15,2013-09-01 07:11:00,
2013-09-01 03:16:00,73.7,68.9,29.81,East,90,0.0,1.0,85,0.00,,,0.00,0,Wunderground v.1.15,2013-09-01 07:16:00,
2013-09-01 03:21:00,73.6,68.8,29.81,East,90,0.0,1.0,85,0.00,,,0.00,0,Wunderground v.1.15,2013-09-01 07:21:00,
2013-09-01 03:26:00,73.6,68.8,29.81,East,90,0.0,1.0,85,0.00,,,0.00,0,Wunderground v.1.15,2013-09-01 07:26:00,
2013-09-01 03:31:00,73.5,68.7,29.81,East,89,0.0,0.0,85,0.00,,,0.00,0,Wunderground v.1.15,2013-09-01 07:31:00,
2013-09-01 03:36:00,73.5,68.7,29.81,East,89,0.0,3.0,85,0.00,,,0.00,0,Wunderground v.1.15,2013-09-01 07:36:00,
2013-09-01 03:41:00,73.4,68.6,29.81,East,89,1.0,1.0,85,0.00,,,0.00,0,Wunderground v.1.15,2013-09-01 07:41:00,
2013-09-01 03:46:00,73.5,68.7,29.81,East,90,1.0,4.0,85,0.00,,,0.00,0,Wunderground v.1.15,2013-09-01 07:46:00,
2013-09-01 03:51:00,73.5,69.1,29.80,East,89,0.0,1.0,86,0.00,,,0.00,0,Wunderground v.1.15,2013-09-01 07:51:00,
2013-09-01 03:56:00,73.4,69.0,29.80,East,89,1.0,1.0,86,0.00,,,0.00,0,Wunderground v.1.15,2013-09-01 07:56:00,
2013-09-01 04:01:00,73.5,69.1,29.80,East,89,0.0,0.0,86,0.00,,,0.00,0,Wunderground v.1.15,2013-09-01 08:01:00,
2013-09-01 04:07:00,73.4,69.0,29.81,East,90,0.0,3.0,86,0.00,,,0.00,0,Wunderground v.1.15,2013-09-01 08:07:00,
2013-09-01 04:12:00,73.4,69.3,29.80,East,89,0.0,1.0,87,0.00,,,0.00,0,Wunderground v.1.15,2013-09-01 08:12:00,
2013-09-01 04:17:00,73.3,68.9,29.80,East,89,0.0,1.0,86,0.00,,,0.00,0,Wunderground v.1.15,2013-09-01 08:17:00,
2013-09-01 04:22:00,73.3,69.2,29.81,East,90,0.0,0.0,87,0.00,,,0.00,0,Wunderground v.1.15,2013-09-01 08:22:00,
2013-09-01 04:27:00,73.2,68.8,29.81,East,89,0.0,0.0,86,0.00,,,0.00,0,Wunderground v.1.15,2013-09-01 08:27:00,
2013-09-01 04:32:00,73.2,69.1,29.81,East,89,0.0,0.0,87,0.00,,,0.00,0,Wunderground v.1.15,2013-09-01 08:32:00,
2013-09-01 04:37:00,73.1,69.0,29.81,East,90,0.0,0.0,87,0.00,,,0.00,0,Wunderground v.1.15,2013-09-01 08:37:00,
2013-09-01 04:42:00,73.1,69.0,29.81,East,89,0.0,0.0,87,0.00,,,0.00,0,Wunderground v.1.15,2013-09-01 08:42:00,
2013-09-01 04:47:00,73.1,69.0,29.81,East,89,0.0,1.0,87,0.00,,,0.00,0,Wunderground v.1.15,2013-09-01 08:47:00,
2013-09-01 04:52:00,73.1,69.0,29.81,East,90,0.0,0.0,87,0.00,,,0.00,0,Wunderground v.1.15,2013-09-01 08:52:00,
2013-09-01 04:57:00,73.0,68.9,29.81,East,89,0.0,0.0,87,0.00,,,0.00,0,Wunderground v.1.15,2013-09-01 08:57:00,
2013-09-01 05:02:00,73.0,68.9,29.81,East,89,0.0,0.0,87,0.00,,,0.00,0,Wunderground v.1.15,2013-09-01 09:02:00,
2013-09-01 05:07:00,72.9,68.8,29.81,East,90,0.0,0.0,87,0.00,,,0.00,0,Wunderground v.1.15,2013-09-01 09:07:00,
2013-09-01 05:12:00,73.0,68.9,29.81,East,89,0.0,0.0,87,0.00,,,0.00,0,Wunderground v.1.15,2013-09-01 09:12:00,
2013-09-01 05:17:00,72.8,68.7,29.81,East,89,0.0,0.0,87,0.00,,,0.00,0,Wunderground v.1.15,2013-09-01 09:17:00,
2013-09-01 05:22:00,72.7,68.6,29.81,East,89,0.0,0.0,87,0.00,,,0.00,0,Wunderground v.1.15,2013-09-01 09:22:00,
2013-09-01 05:27:00,72.7,68.9,29.82,East,90,0.0,0.0,88,0.00,,,0.00,0,Wunderground v.1.15,2013-09-01 09:27:00,
2013-09-01 05:32:00,72.6,68.8,29.82,East,90,0.0,0.0,88,0.00,,,0.00,0,Wunderground v.1.15,2013-09-01 09:32:00,
2013-09-01 05:37:00,72.5,68.4,29.82,East,90,0.0,0.0,87,0.00,,,0.00,0,Wunderground v.1.15,2013-09-01 09:37:00,
2013-09-01 05:42:00,72.3,68.2,29.82,East,89,0.0,0.0,87,0.00,,,0.00,0,Wunderground v.1.15,2013-09-01 09:42:00,
2013-09-01 05:47:00,72.3,68.5,29.82,East,89,0.0,0.0,88,0.00,,,0.00,0,Wunderground v.1.15,2013-09-01 09:47:00,
2013-09-01 05:52:00,72.4,68.3,29.82,East,90,0.0,1.0,87,0.00,,,0.00,0,Wunderground v.1.15,2013-09-01 09:52:00,
2013-09-01 05:58:00,72.3,68.2,29.82,East,90,0.0,2.0,87,0.00,,,0.00,0,Wunderground v.1.15,2013-09-01 09:58:00,
2013-09-01 06:03:00,72.5,68.4,29.82,East,89,0.0,0.0,87,0.00,,,0.00,0,Wunderground v.1.15,2013-09-01 10:03:00,
2013-09-01 06:08:00,72.6,68.8,29.82,East,89,0.0,0.0,88,0.00,,,0.00,0,Wunderground v.1.15,2013-09-01 10:08:00,
2013-09-01 06:13:00,72.5,68.7,29.82,East,90,0.0,1.0,88,0.00,,,0.00,0,Wunderground v.1.15,2013-09-01 10:13:00,
2013-09-01 06:18:00,72.6,68.5,29.82,East,89,0.0,1.0,87,0.00,,,0.00,0,Wunderground v.1.15,2013-09-01 10:18:00,
2013-09-01 06:23:00,72.7,68.6,29.83,East,89,0.0,0.0,87,0.00,,,0.00,0,Wunderground v.1.15,2013-09-01 10:23:00,
2013-09-01 06:28:00,72.6,68.5,29.83,East,90,0.0,0.0,87,0.00,,,0.00,0,Wunderground v.1.15,2013-09-01 10:28:00,
2013-09-01 06:33:00,72.6,68.8,29.83,East,90,0.0,0.0,88,0.00,,,0.00,0,Wunderground v.1.15,2013-09-01 10:33:00,
2013-09-01 06:38:00,72.6,68.8,29.83,East,89,0.0,0.0,88,0.00,,,0.00,0,Wunderground v.1.15,2013-09-01 10:38:00,
2013-09-01 06:43:00,72.8,69.0,29.83,East,89,0.0,1.0,88,0.00,,,0.00,0,Wunderground v.1.15,2013-09-01 10:43:00,
2013-09-01 06:48:00,72.9,69.1,29.83,East,90,0.0,1.0,88,0.00,,,0.00,0,Wunderground v.1.15,2013-09-01 10:48:00,
2013-09-01 06:53:00,72.7,68.9,29.83,East,90,0.0,0.0,88,0.00,,,0.00,0,Wunderground v.1.15,2013-09-01 10:53:00,
2013-09-01 06:58:00,72.8,69.0,29.83,East,90,0.0,0.0,88,0.00,,,0.00,0,Wunderground v.1.15,2013-09-01 10:58:00,
2013-09-01 07:04:00,72.9,69.1,29.83,East,89,0.0,1.0,88,0.00,,,0.00,0,Wunderground v.1.15,2013-09-01 11:04:00,
2013-09-01 07:09:00,73.1,69.3,29.83,East,89,0.0,3.0,88,0.00,,,0.00,0,Wunderground v.1.15,2013-09-01 11:09:00,
2013-09-01 07:14:00,73.4,69.6,29.83,East,90,3.0,4.0,88,0.00,,,0.00,0,Wunderground v.1.15,2013-09-01 11:14:00,
2013-09-01 07:19:00,73.5,70.1,29.83,East,92,1.0,4.0,89,0.00,,,0.00,0,Wunderground v.1.15,2013-09-01 11:19:00,
2013-09-01 07:24:00,73.8,70.4,29.83,ESE,106,0.0,5.0,89,0.00,,,0.00,0,Wunderground v.1.15,2013-09-01 11:24:00,
2013-09-01 07:29:00,73.9,70.5,29.83,ESE,106,0.0,5.0,89,0.00,,,0.00,0,Wunderground v.1.15,2013-09-01 11:29:00,
2013-09-01 07:34:00,74.1,70.3,29.83,ESE,105,1.0,3.0,88,0.00,,,0.00,0,Wunderground v.1.15,2013-09-01 11:34:00,
2013-09-01 07:40:00,74.2,70.4,29.83,ESE,105,0.0,0.0,88,0.00,,,0.00,0,Wunderground v.1.15,2013-09-01 11:40:00,
2013-09-01 07:45:00,74.3,70.5,29.83,ESE,105,1.0,3.0,88,0.00,,,0.00,0,Wunderground v.1.15,2013-09-01 11:45:00,
2013-09-01 07:50:00,74.3,70.5,29.83,ESE,120,0.0,1.0,88,0.00,,,0.00,0,Wunderground v.1.15,2013-09-01 11:50:00,
2013-09-01 07:55:00,74.5,70.7,29.83,ESE,120,0.0,3.0,88,0.00,,,0.00,0,Wunderground v.1.15,2013-09-01 11:55:00,
2013-09-01 08:00:00,74.7,70.9,29.83,SE,138,0.0,0.0,88,0.00,,,0.00,0,Wunderground v.1.15,2013-09-01 12:00:00,
2013-09-01 08:05:00,74.7,70.9,29.83,SE,138,0.0,3.0,88,0.00,,,0.00,0,Wunderground v.1.15,2013-09-01 12:05:00,
2013-09-01 08:10:00,74.9,71.1,29.84,SE,124,0.0,1.0,88,0.00,,,0.00,0,Wunderground v.1.15,2013-09-01 12:10:00,
2013-09-01 08:15:00,75.0,70.9,29.84,SE,130,0.0,4.0,87,0.00,,,0.00,0,Wunderground v.1.15,2013-09-01 12:15:00,
2013-09-01 08:20:00,75.4,71.3,29.84,SE,129,1.0,5.0,87,0.00,,,0.00,0,Wunderground v.1.15,2013-09-01 12:20:00,
2013-09-01 08:25:00,75.6,71.5,29.84,SE,129,0.0,5.0,87,0.00,,,0.00,0,Wunderground v.1.15,2013-09-01 12:25:00,
2013-09-01 08:30:00,75.9,71.8,29.84,SE,128,4.0,4.0,87,0.00,,,0.00,0,Wunderground v.1.15,2013-09-01 12:30:00,
2013-09-01 08:35:00,76.3,72.1,29.84,SE,140,1.0,6.0,87,0.00,,,0.00,0,Wunderground v.1.15,2013-09-01 12:35:00,
2013-09-01 08:40:00,76.4,71.9,29.85,SE,141,2.0,2.0,86,0.00,,,0.00,0,Wunderground v.1.15,2013-09-01 12:40:00,
2013-09-01 08:45:00,76.9,72.4,29.84,SE,140,2.0,4.0,86,0.00,,,0.00,0,Wunderground v.1.15,2013-09-01 12:45:00,
2013-09-01 08:50:00,77.2,72.3,29.85,SSW,207,2.0,3.0,85,0.00,,,0.00,0,Wunderground v.1.15,2013-09-01 12:50:00,
2013-09-01 08:55:00,77.6,72.4,29.85,SSE,168,2.0,5.0,84,0.00,,,0.00,0,Wunderground v.1.15,2013-09-01 12:55:00,
2013-09-01 09:00:00,77.7,72.5,29.85,SE,137,3.0,5.0,84,0.00,,,0.00,0,Wunderground v.1.15,2013-09-01 13:00:00,
2013-09-01 09:05:00,77.6,72.0,29.85,SSE,158,0.0,6.0,83,0.00,,,0.00,0,Wunderground v.1.15,2013-09-01 13:05:00,
2013-09-01 09:10:00,77.7,71.8,29.85,SE,136,7.0,8.0,82,0.00,,,0.00,0,Wunderground v.1.15,2013-09-01 13:10:00,
2013-09-01 09:15:00,77.9,72.0,29.85,SW,230,4.0,9.0,82,0.00,,,0.00,0,Wunderground v.1.15,2013-09-01 13:15:00,
2013-09-01 09:20:00,78.3,72.0,29.85,SSW,198,4.0,4.0,81,0.00,,,0.00,0,Wunderground v.1.15,2013-09-01 13:20:00,
2013-09-01 09:25:00,78.5,71.8,29.85,South,181,2.0,8.0,80,0.00,,,0.00,0,Wunderground v.1.15,2013-09-01 13:25:00,
2013-09-01 09:30:00,78.7,71.6,29.85,SSW,195,5.0,6.0,79,0.00,,,0.00,0,Wunderground v.1.15,2013-09-01 13:30:00,
2013-09-01 09:35:00,78.8,71.7,29.85,SSW,202,0.0,6.0,79,0.00,,,0.00,0,Wunderground v.1.15,2013-09-01 13:35:00,
2013-09-01 09:40:00,78.8,71.4,29.85,WNW,290,2.0,3.0,78,0.00,,,0.00,0,Wunderground v.1.15,2013-09-01 13:40:00,
2013-09-01 09:45:00,78.7,71.3,29.84,South,179,3.0,5.0,78,0.00,,,0.00,0,Wunderground v.1.15,2013-09-01 13:45:00,
2013-09-01 09:50:00,78.8,71.4,29.84,SSE,166,0.0,3.0,78,0.00,,,0.00,0,Wunderground v.1.15,2013-09-01 13:50:00,
2013-09-01 09:55:00,78.8,71.4,29.84,SSE,168,2.0,4.0,78,0.00,,,0.00,0,Wunderground v.1.15,2013-09-01 13:55:00,
2013-09-01 10:00:00,79.1,71.6,29.84,SE,140,5.0,9.0,78,0.00,,,0.00,0,Wunderground v.1.15,2013-09-01 14:00:00,
2013-09-01 10:05:00,79.3,71.5,29.85,South,186,0.0,9.0,77,0.00,,,0.00,0,Wunderground v.1.15,2013-09-01 14:05:00,
2013-09-01 10:10:00,79.6,71.8,29.85,SSW,197,1.0,3.0,77,0.00,,,0.00,0,Wunderground v.1.15,2013-09-01 14:10:00,
2013-09-01 10:15:00,79.6,71.0,29.85,SW,219,1.0,6.0,75,0.00,,,0.00,0,Wunderground v.1.15,2013-09-01 14:15:00,
2013-09-01 10:20:00,79.8,71.6,29.85,SSW,213,1.0,1.0,76,0.00,,,0.00,0,Wunderground v.1.15,2013-09-01 14:20:00,
2013-09-01 10:25:00,79.8,70.8,29.85,WNW,301,3.0,5.0,74,0.00,,,0.00,0,Wunderground v.1.15,2013-09-01 14:25:00,
2013-09-01 10:30:00,79.9,71.3,29.85,WNW,298,0.0,1.0,75,0.00,,,0.00,0,Wunderground v.1.15,2013-09-01 14:30:00,
2013-09-01 10:35:00,80.0,71.0,29.84,SW,216,1.0,4.0,74,0.00,,,0.00,0,Wunderground v.1.15,2013-09-01 14:35:00,
2013-09-01 10:41:00,80.4,71.7,29.84,SW,216,2.0,2.0,75,0.00,,,0.00,0,Wunderground v.1.15,2013-09-01 14:41:00,
2013-09-01 10:45:00,81.0,70.7,29.84,SE,125,1.0,8.0,71,0.00,,,0.00,0,Wunderground v.1.15,2013-09-01 14:45:00,
2013-09-01 10:51:00,81.0,70.7,29.84,SSW,211,1.0,5.0,71,0.00,,,0.00,0,Wunderground v.1.15,2013-09-01 14:51:00,
2013-09-01 10:56:00,81.0,70.7,29.84,SE,124,0.0,6.0,71,0.00,,,0.00,0,Wunderground v.1.15,2013-09-01 14:56:00,
2013-09-01 11:01:00,81.2,70.5,29.84,ESE,122,0.0,1.0,70,0.00,,,0.00,0,Wunderground v.1.15,2013-09-01 15:01:00,
2013-09-01 11:06:00,81.7,70.5,29.84,ESE,121,2.0,5.0,69,0.00,,,0.00,0,Wunderground v.1.15,2013-09-01 15:06:00,
2013-09-01 11:11:00,82.0,70.8,29.84,WNW,283,0.0,2.0,69,0.00,,,0.00,0,Wunderground v.1.15,2013-09-01 15:11:00,
2013-09-01 11:16:00,82.1,70.5,29.84,West,273,0.0,3.0,68,0.00,,,0.00,0,Wunderground v.1.15,2013-09-01 15:16:00,
2013-09-01 11:21:00,82.3,70.7,29.84,West,273,0.0,3.0,68,0.00,,,0.00,0,Wunderground v.1.15,2013-09-01 15:21:00,
2013-09-01 11:26:00,82.5,70.9,29.84,SW,236,1.0,3.0,68,0.00,,,0.00,0,Wunderground v.1.15,2013-09-01 15:26:00,
2013-09-01 11:31:00,82.7,71.1,29.84,WSW,237,1.0,2.0,68,0.00,,,0.00,0,Wunderground v.1.15,2013-09-01 15:31:00,
2013-09-01 11:36:00,82.7,71.1,29.84,SSW,201,3.0,5.0,68,0.00,,,0.00,0,Wunderground v.1.15,2013-09-01 15:36:00,
2013-09-01 11:41:00,82.8,71.6,29.83,SE,131,4.0,5.0,69,0.00,,,0.00,0,Wunderground v.1.15,2013-09-01 15:41:00,
2013-09-01 11:46:00,82.8,71.6,29.83,ESE,107,2.0,5.0,69,0.00,,,0.00,0,Wunderground v.1.15,2013-09-01 15:46:00,
2013-09-01 11:51:00,82.8,71.6,29.83,SSE,162,2.0,6.0,69,0.00,,,0.00,0,Wunderground v.1.15,2013-09-01 15:51:00,
2013-09-01 11:56:00,82.9,71.3,29.83,SSW,209,1.0,9.0,68,0.00,,,0.00,0,Wunderground v.1.15,2013-09-01 15:56:00,
2013-09-01 12:01:00,83.3,71.2,29.83,South,169,3.0,4.0,67,0.00,,,0.00,0,Wunderground v.1.15,2013-09-01 16:01:00,
2013-09-01 12:06:00,83.4,70.8,29.83,SSW,196,2.0,7.0,66,0.00,,,0.00,0,Wunderground v.1.15,2013-09-01 16:06:00,
2013-09-01 12:11:00,83.8,71.7,29.83,SSE,148,1.0,5.0,67,0.00,,,0.00,0,Wunderground v.1.15,2013-09-01 16:11:00,
2013-09-01 12:16:00,83.8,70.8,29.83,SSE,156,2.0,6.0,65,0.00,,,0.00,0,Wunderground v.1.15,2013-09-01 16:16:00,
2013-09-01 12:21:00,83.8,70.8,29.83,SW,230,0.0,4.0,65,0.00,,,0.00,0,Wunderground v.1.15,2013-09-01 16:21:00,
2013-09-01 12:26:00,84.4,72.2,29.82,SW,230,0.0,4.0,67,0.00,,,0.00,0,Wunderground v.1.15,2013-09-01 16:26:00,
2013-09-01 12:31:00,84.8,71.7,29.82,SE,134,0.0,3.0,65,0.00,,,0.00,0,Wunderground v.1.15,2013-09-01 16:31:00,
2013-09-01 12:36:00,85.4,71.8,29.82,SE,143,4.0,10.0,64,0.00,,,0.00,0,Wunderground v.1.15,2013-09-01 16:36:00,
2013-09-01 12:41:00,86.0,71.9,29.81,East,87,2.0,3.0,63,0.00,,,0.00,0,Wunderground v.1.15,2013-09-01 16:41:00,
2013-09-01 12:46:00,86.2,70.7,29.81,SW,221,1.0,5.0,60,0.00,,,0.00,0,Wunderground v.1.15,2013-09-01 16:46:00,
2013-09-01 12:51:00,86.0,71.5,29.81,SSE,156,1.0,3.0,62,0.00,,,0.00,0,Wunderground v.1.15,2013-09-01 16:51:00,
2013-09-01 12:56:00,86.2,71.6,29.81,South,186,0.0,6.0,62,0.00,,,0.00,0,Wunderground v.1.15,2013-09-01 16:56:00,
2013-09-01 13:01:00,86.3,70.8,29.81,South,180,2.0,5.0,60,0.00,,,0.00,0,Wunderground v.1.15,2013-09-01 17:01:00,
2013-09-01 13:06:00,86.4,70.9,29.81,SSE,167,3.0,5.0,60,0.00,,,0.00,0,Wunderground v.1.15,2013-09-01 17:06:00,
2013-09-01 13:11:00,86.1,70.6,29.81,South,174,0.0,5.0,60,0.00,,,0.00,0,Wunderground v.1.15,2013-09-01 17:11:00,
2013-09-01 13:16:00,86.7,71.6,29.81,SSE,166,0.0,5.0,61,0.00,,,0.00,0,Wunderground v.1.15,2013-09-01 17:16:00,
2013-09-01 13:21:00,87.5,70.9,29.81,South,173,2.0,4.0,58,0.00,,,0.00,0,Wunderground v.1.15,2013-09-01 17:21:00,
2013-09-01 13:26:00,87.2,70.6,29.81,SSE,153,3.0,8.0,58,0.00,,,0.00,0,Wunderground v.1.15,2013-09-01 17:26:00,
2013-09-01 13:31:00,87.2,71.6,29.81,SE,137,0.0,2.0,60,0.00,,,0.00,0,Wunderground v.1.15,2013-09-01 17:31:00,
2013-09-01 13:36:00,87.4,70.8,29.81,SE,133,3.0,7.0,58,0.00,,,0.00,0,Wunderground v.1.15,2013-09-01 17:36:00,
2013-09-01 13:41:00,87.0,72.4,29.81,SE,126,6.0,8.0,62,0.00,,,0.00,0,Wunderground v.1.15,2013-09-01 17:41:00,
2013-09-01 13:46:00,85.7,72.1,29.81,East,80,3.0,8.0,64,0.00,,,0.00,0,Wunderground v.1.15,2013-09-01 17:46:00,
2013-09-01 13:51:00,85.5,72.8,29.81,ESE,114,3.0,7.0,66,0.00,,,0.00,0,Wunderground v.1.15,2013-09-01 17:51:00,
2013-09-01 13:56:00,85.4,72.7,29.81,ESE,103,6.0,9.0,66,0.00,,,0.00,0,Wunderground v.1.15,2013-09-01 17:56:00,
2013-09-01 14:01:00,85.4,72.7,29.81,ESE,115,5.0,5.0,66,0.00,,,0.00,0,Wunderground v.1.15,2013-09-01 18:01:00,
2013-09-01 14:06:00,85.5,72.8,29.81,SE,145,4.0,8.0,66,0.00,,,0.00,0,Wunderground v.1.15,2013-09-01 18:06:00,
2013-09-01 14:11:00,85.1,72.5,29.81,SE,125,7.0,13.0,66,0.00,,,0.00,0,Wunderground v.1.15,2013-09-01 18:11:00,
2013-09-01 14:16:00,85.2,73.4,29.80,SE,131,6.0,13.0,68,0.00,,,0.00,0,Wunderground v.1.15,2013-09-01 18:16:00,
2013-09-01 14:21:00,85.6,72.9,29.81,SE,145,6.0,17.0,66,0.00,,,0.00,0,Wunderground v.1.15,2013-09-01 18:21:00,
2013-09-01 14:26:00,84.7,72.5,29.81,ESE,116,3.0,17.0,67,0.00,,,0.00,0,Wunderground v.1.15,2013-09-01 18:26:00,
2013-09-01 14:31:00,84.9,72.7,29.80,SE,140,3.0,8.0,67,0.00,,,0.00,0,Wunderground v.1.15,2013-09-01 18:31:00,
2013-09-01 14:36:00,85.1,72.9,29.80,SE,134,1.0,8.0,67,0.00,,,0.00,0,Wunderground v.1.15,2013-09-01 18:36:00,
2013-09-01 14:41:00,84.8,72.2,29.80,SE,135,1.0,6.0,66,0.00,,,0.00,0,Wunderground v.1.15,2013-09-01 18:41:00,
2013-09-01 14:46:00,85.2,72.6,29.80,SE,134,5.0,8.0,66,0.00,,,0.00,0,Wunderground v.1.15,2013-09-01 18:46:00,
2013-09-01 14:51:00,84.7,72.1,29.80,SSW,194,1.0,8.0,66,0.00,,,0.00,0,Wunderground v.1.15,2013-09-01 18:51:00,
2013-09-01 14:56:00,84.3,72.1,29.80,SSE,147,0.0,10.0,67,0.00,,,0.00,0,Wunderground v.1.15,2013-09-01 18:56:00,
2013-09-01 15:01:00,83.7,70.7,29.80,SE,133,5.0,9.0,65,0.00,,,0.00,0,Wunderground v.1.15,2013-09-01 19:01:00,
2013-09-01 15:06:00,83.2,70.7,29.80,SE,127,2.0,9.0,66,0.00,,,0.00,0,Wunderground v.1.15,2013-09-01 19:06:00,
2013-09-01 15:11:00,82.9,71.7,29.80,SW,234,4.0,7.0,69,0.00,,,0.00,0,Wunderground v.1.15,2013-09-01 19:11:00,
2013-09-01 15:16:00,81.5,71.6,29.80,ESE,123,1.0,7.0,72,0.00,,,0.00,0,Wunderground v.1.15,2013-09-01 19:16:00,
2013-09-01 15:21:00,80.5,71.8,29.79,SE,126,2.0,6.0,75,0.00,,,0.00,0,Wunderground v.1.15,2013-09-01 19:21:00,
2013-09-01 15:26:00,80.0,71.8,29.79,ESE,122,3.0,9.0,76,0.00,,,0.00,0,Wunderground v.1.15,2013-09-01 19:26:00,
2013-09-01 15:31:00,80.0,71.8,29.79,SE,127,0.0,3.0,76,0.00,,,0.00,0,Wunderground v.1.15,2013-09-01 19:31:00,
2013-09-01 15:37:00,80.3,71.6,29.79,SSE,149,2.0,9.0,75,0.00,,,0.00,0,Wunderground v.1.15,2013-09-01 19:37:00,
2013-09-01 15:42:00,80.5,71.8,29.79,SE,133,6.0,6.0,75,0.00,,,0.00,0,Wunderground v.1.15,2013-09-01 19:42:00,
2013-09-01 15:47:00,80.5,71.4,29.79,SE,130,2.0,8.0,74,0.00,,,0.00,0,Wunderground v.1.15,2013-09-01 19:47:00,
2013-09-01 15:52:00,81.1,72.4,29.78,SE,130,1.0,4.0,75,0.00,,,0.00,0,Wunderground v.1.15,2013-09-01 19:52:00,
2013-09-01 15:57:00,81.7,72.6,29.78,East,96,5.0,8.0,74,0.00,,,0.00,0,Wunderground v.1.15,2013-09-01 19:57:00,
2013-09-01 16:02:00,82.2,72.3,29.78,SE,142,2.0,6.0,72,0.00,,,0.00,0,Wunderground v.1.15,2013-09-01 20:02:00,
2013-09-01 16:07:00,82.4,72.0,29.78,ESE,119,2.0,10.0,71,0.00,,,0.00,0,Wunderground v.1.15,2013-09-01 20:07:00,
2013-09-01 16:12:00,81.9,71.6,29.79,SE,125,4.0,6.0,71,0.00,,,0.00,0,Wunderground v.1.15,2013-09-01 20:12:00,
2013-09-01 16:17:00,81.6,71.7,29.78,SE,144,4.0,10.0,72,0.00,,,0.00,0,Wunderground v.1.15,2013-09-01 20:17:00,
2013-09-01 16:22:00,81.3,71.4,29.78,ESE,123,5.0,7.0,72,0.00,,,0.00,0,Wunderground v.1.15,2013-09-01 20:22:00,
2013-09-01 16:27:00,80.7,71.2,29.78,SE,139,2.0,11.0,73,0.00,,,0.00,0,Wunderground v.1.15,2013-09-01 20:27:00,
2013-09-01 16:32:00,80.2,70.8,29.77,SE,134,4.0,13.0,73,0.00,,,0.00,0,Wunderground v.1.15,2013-09-01 20:32:00,
2013-09-01 16:37:00,79.9,70.9,29.78,SSE,149,2.0,13.0,74,0.00,,,0.00,0,Wunderground v.1.15,2013-09-01 20:37:00,
2013-09-01 16:42:00,79.8,71.2,29.79,SE,133,4.0,5.0,75,0.00,,,0.00,0,Wunderground v.1.15,2013-09-01 20:42:00,
2013-09-01 16:47:00,79.5,70.9,29.80,SSW,192,2.0,7.0,75,0.00,,,0.00,0,Wunderground v.1.15,2013-09-01 20:47:00,
2013-09-01 16:52:00,79.4,70.8,29.79,SSW,198,0.0,3.0,75,0.00,,,0.00,0,Wunderground v.1.15,2013-09-01 20:52:00,
2013-09-01 16:57:00,79.4,70.8,29.78,SSW,198,2.0,3.0,75,0.00,,,0.00,0,Wunderground v.1.15,2013-09-01 20:57:00,
2013-09-01 17:02:00,79.2,70.6,29.80,SW,227,1.0,1.0,75,0.00,,,0.00,0,Wunderground v.1.15,2013-09-01 21:02:00,
2013-09-01 17:07:00,79.2,70.6,29.80,SW,226,1.0,3.0,75,0.00,,,0.00,0,Wunderground v.1.15,2013-09-01 21:07:00,
2013-09-01 17:12:00,79.2,71.0,29.80,SSW,205,0.0,1.0,76,0.00,,,0.00,0,Wunderground v.1.15,2013-09-01 21:12:00,
2013-09-01 17:17:00,79.2,71.4,29.80,SSW,205,0.0,1.0,77,0.00,,,0.00,0,Wunderground v.1.15,2013-09-01 21:17:00,
2013-09-01 17:22:00,78.7,71.3,29.80,ENE,73,1.0,4.0,78,0.00,,,0.00,0,Wunderground v.1.15,2013-09-01 21:22:00,
2013-09-01 17:27:00,78.1,71.1,29.80,NW,307,2.0,8.0,79,0.00,,,0.00,0,Wunderground v.1.15,2013-09-01 21:27:00,
2013-09-01 17:32:00,77.6,70.9,29.80,NW,306,0.0,2.0,80,0.00,,,0.00,0,Wunderground v.1.15,2013-09-01 21:32:00,
2013-09-01 17:37:00,77.3,71.0,29.80,NW,306,0.0,2.0,81,0.00,,,0.00,0,Wunderground v.1.15,2013-09-01 21:37:00,
2013-09-01 17:42:00,76.5,70.2,29.80,WNW,302,0.0,4.0,81,0.00,,,0.00,0,Wunderground v.1.15,2013-09-01 21:42:00,
2013-09-01 17:47:00,76.3,70.0,29.80,WNW,302,0.0,4.0,81,0.00,,,0.00,0,Wunderground v.1.15,2013-09-01 21:47:00,
2013-09-01 17:52:00,76.2,70.3,29.79,WNW,302,0.0,0.0,82,0.00,,,0.00,0,Wunderground v.1.15,2013-09-01 21:52:00,
2013-09-01 17:57:00,75.9,70.0,29.79,WNW,302,1.0,1.0,82,0.00,,,0.00,0,Wunderground v.1.15,2013-09-01 21:57:00,
2013-09-01 18:02:00,75.7,69.8,29.79,WNW,302,0.0,0.0,82,0.00,,,0.00,0,Wunderground v.1.15,2013-09-01 22:02:00,
2013-09-01 18:07:00,75.8,69.9,29.79,WNW,302,0.0,0.0,82,0.00,,,0.00,0,Wunderground v.1.15,2013-09-01 22:07:00,
2013-09-01 18:12:00,75.9,70.0,29.79,WNW,302,0.0,0.0,82,0.00,,,0.00,0,Wunderground v.1.15,2013-09-01 22:12:00,
2013-09-01 18:18:00,76.0,70.1,29.79,WNW,302,0.0,0.0,82,0.00,,,0.00,0,Wunderground v.1.15,2013-09-01 22:18:00,
2013-09-01 18:23:00,76.0,70.1,29.79,WNW,302,0.0,0.0,82,0.00,,,0.00,0,Wunderground v.1.15,2013-09-01 22:23:00,
2013-09-01 18:28:00,75.8,69.9,29.79,WNW,302,0.0,0.0,82,0.00,,,0.00,0,Wunderground v.1.15,2013-09-01 22:28:00,
2013-09-01 18:33:00,75.7,69.8,29.79,WNW,302,0.0,0.0,82,0.00,,,0.00,0,Wunderground v.1.15,2013-09-01 22:33:00,
2013-09-01 18:38:00,76.0,70.5,29.78,WNW,302,0.0,0.0,83,0.00,,,0.00,0,Wunderground v.1.15,2013-09-01 22:38:00,
2013-09-01 18:43:00,76.1,70.6,29.78,WNW,302,0.0,0.0,83,0.00,,,0.00,0,Wunderground v.1.15,2013-09-01 22:43:00,
2013-09-01 18:48:00,76.4,70.9,29.79,WNW,302,0.0,0.0,83,0.00,,,0.00,0,Wunderground v.1.15,2013-09-01 22:48:00,
2013-09-01 18:53:00,76.4,70.5,29.79,WNW,302,0.0,2.0,82,0.00,,,0.00,0,Wunderground v.1.15,2013-09-01 22:53:00,
2013-09-01 18:58:00,76.4,70.9,29.79,WNW,302,0.0,2.0,83,0.00,,,0.00,0,Wunderground v.1.15,2013-09-01 22:58:00,
2013-09-01 19:04:00,76.4,70.9,29.80,WNW,302,0.0,1.0,83,0.00,,,0.00,0,Wunderground v.1.15,2013-09-01 23:04:00,
2013-09-01 19:09:00,76.6,71.0,29.79,WNW,302,0.0,2.0,83,0.00,,,0.00,0,Wunderground v.1.15,2013-09-01 23:09:00,
2013-09-01 19:14:00,76.3,70.8,29.79,WNW,301,0.0,3.0,83,0.00,,,0.00,0,Wunderground v.1.15,2013-09-01 23:14:00,
2013-09-01 19:19:00,76.2,71.0,29.79,SE,139,2.0,9.0,84,0.00,,,0.00,0,Wunderground v.1.15,2013-09-01 23:19:00,
2013-09-01 19:24:00,75.9,70.7,29.79,South,177,0.0,4.0,84,0.00,,,0.00,0,Wunderground v.1.15,2013-09-01 23:24:00,
2013-09-01 19:29:00,75.8,71.0,29.79,SE,137,4.0,4.0,85,0.00,,,0.00,0,Wunderground v.1.15,2013-09-01 23:29:00,
2013-09-01 19:34:00,75.6,70.8,29.79,SE,141,1.0,7.0,85,0.00,,,0.00,0,Wunderground v.1.15,2013-09-01 23:34:00,
2013-09-01 19:39:00,75.4,70.6,29.79,SSW,205,4.0,7.0,85,0.00,,,0.00,0,Wunderground v.1.15,2013-09-01 23:39:00,
2013-09-01 19:45:00,75.2,70.4,29.79,SSE,156,0.0,6.0,85,0.00,,,0.00,0,Wunderground v.1.15,2013-09-01 23:45:00,
2013-09-01 19:50:00,75.1,70.3,29.79,SSE,156,2.0,2.0,85,0.00,,,0.00,0,Wunderground v.1.15,2013-09-01 23:50:00,
2013-09-01 19:55:00,75.1,70.6,29.79,SSE,147,0.0,5.0,86,0.00,,,0.00,0,Wunderground v.1.15,2013-09-01 23:55:00,
2013-09-01 20:00:00,75.1,70.6,29.79,SE,146,2.0,2.0,86,0.00,,,0.00,0,Wunderground v.1.15,2013-09-02 00:00:00,
2013-09-01 20:05:00,75.1,70.6,29.80,SE,145,1.0,3.0,86,0.00,,,0.00,0,Wunderground v.1.15,2013-09-02 00:05:00,
2013-09-01 20:10:00,75.0,70.5,29.79,ESE,103,0.0,2.0,86,0.00,,,0.00,0,Wunderground v.1.15,2013-09-02 00:10:00,
2013-09-01 20:15:00,75.1,70.6,29.80,ESE,103,1.0,3.0,86,0.00,,,0.00,0,Wunderground v.1.15,2013-09-02 00:15:00,
2013-09-01 20:20:00,75.1,70.6,29.80,ESE,118,2.0,2.0,86,0.00,,,0.00,0,Wunderground v.1.15,2013-09-02 00:20:00,
2013-09-01 20:25:00,75.2,71.1,29.81,ESE,118,0.0,5.0,87,0.00,,,0.00,0,Wunderground v.1.15,2013-09-02 00:25:00,
2013-09-01 20:30:00,75.2,71.1,29.81,South,177,0.0,0.0,87,0.00,,,0.00,0,Wunderground v.1.15,2013-09-02 00:30:00,
2013-09-01 20:35:00,75.2,71.1,29.81,SE,138,0.0,5.0,87,0.00,,,0.00,0,Wunderground v.1.15,2013-09-02 00:35:00,
2013-09-01 20:40:00,75.1,71.0,29.81,SE,138,0.0,0.0,87,0.00,,,0.00,0,Wunderground v.1.15,2013-09-02 00:40:00,
2013-09-01 20:45:00,75.2,71.1,29.81,SSE,149,1.0,5.0,87,0.00,,,0.00,0,Wunderground v.1.15,2013-09-02 00:45:00,
2013-09-01 20:50:00,75.0,70.5,29.81,SSE,149,0.0,0.0,86,0.00,,,0.00,0,Wunderground v.1.15,2013-09-02 00:50:00,
2013-09-01 20:55:00,75.1,71.0,29.81,ESE,116,1.0,6.0,87,0.00,,,0.00,0,Wunderground v.1.15,2013-09-02 00:55:00,
2013-09-01 21:00:00,75.0,70.9,29.81,ESE,116,2.0,2.0,87,0.00,,,0.00,0,Wunderground v.1.15,2013-09-02 01:00:00,
2013-09-01 21:05:00,75.0,70.9,29.81,ESE,116,0.0,3.0,87,0.00,,,0.00,0,Wunderground v.1.15,2013-09-02 01:05:00,
2013-09-01 21:10:00,75.0,70.9,29.81,SE,124,3.0,4.0,87,0.00,,,0.00,0,Wunderground v.1.15,2013-09-02 01:10:00,
2013-09-01 21:15:00,74.9,70.8,29.81,SE,125,0.0,4.0,87,0.00,,,0.00,0,Wunderground v.1.15,2013-09-02 01:15:00,
2013-09-01 21:20:00,75.0,70.9,29.81,SE,125,0.0,1.0,87,0.00,,,0.00,0,Wunderground v.1.15,2013-09-02 01:20:00,
2013-09-01 21:25:00,75.0,70.9,29.81,SE,145,0.0,6.0,87,0.00,,,0.00,0,Wunderground v.1.15,2013-09-02 01:25:00,
2013-09-01 21:30:00,75.0,70.9,29.81,SSE,158,1.0,1.0,87,0.00,,,0.00,0,Wunderground v.1.15,2013-09-02 01:30:00,
2013-09-01 21:35:00,74.9,70.8,29.81,SSE,158,0.0,3.0,87,0.00,,,0.00,0,Wunderground v.1.15,2013-09-02 01:35:00,
2013-09-01 21:40:00,74.8,70.7,29.82,SSE,158,0.0,0.0,87,0.00,,,0.00,0,Wunderground v.1.15,2013-09-02 01:40:00,
2013-09-01 21:45:00,74.9,70.8,29.82,SSE,158,2.0,2.0,87,0.00,,,0.00,0,Wunderground v.1.15,2013-09-02 01:45:00,
2013-09-01 21:50:00,74.9,70.8,29.82,SSE,158,1.0,3.0,87,0.00,,,0.00,0,Wunderground v.1.15,2013-09-02 01:50:00,
2013-09-01 21:55:00,74.9,70.8,29.82,SSE,159,0.0,3.0,87,0.00,,,0.00,0,Wunderground v.1.15,2013-09-02 01:55:00,
2013-09-01 22:00:00,75.0,70.9,29.82,SSE,158,0.0,1.0,87,0.00,,,0.00,0,Wunderground v.1.15,2013-09-02 02:00:00,
2013-09-01 22:05:00,74.9,70.8,29.82,SSE,158,0.0,3.0,87,0.00,,,0.00,0,Wunderground v.1.15,2013-09-02 02:05:00,
2013-09-01 22:10:00,74.8,70.7,29.81,SSE,159,2.0,3.0,87,0.00,,,0.00,0,Wunderground v.1.15,2013-09-02 02:10:00,
2013-09-01 22:15:00,74.8,70.7,29.81,SSE,158,0.0,3.0,87,0.00,,,0.00,0,Wunderground v.1.15,2013-09-02 02:15:00,
2013-09-01 22:21:00,74.7,70.6,29.81,SSE,158,0.0,3.0,87,0.00,,,0.00,0,Wunderground v.1.15,2013-09-02 02:21:00,
2013-09-01 22:26:00,74.7,70.6,29.81,SSE,158,0.0,3.0,87,0.00,,,0.00,0,Wunderground v.1.15,2013-09-02 02:26:00,
2013-09-01 22:31:00,74.7,70.6,29.81,SSE,159,0.0,0.0,87,0.00,,,0.00,0,Wunderground v.1.15,2013-09-02 02:31:00,
2013-09-01 22:36:00,74.5,70.4,29.81,SSE,159,0.0,0.0,87,0.00,,,0.00,0,Wunderground v.1.15,2013-09-02 02:36:00,
2013-09-01 22:41:00,74.5,70.4,29.81,SSE,158,0.0,0.0,87,0.00,,,0.00,0,Wunderground v.1.15,2013-09-02 02:41:00,
2013-09-01 22:46:00,74.4,70.3,29.81,SSE,158,0.0,0.0,87,0.00,,,0.00,0,Wunderground v.1.15,2013-09-02 02:46:00,
2013-09-01 22:51:00,74.5,70.4,29.81,SSE,158,0.0,4.0,87,0.00,,,0.00,0,Wunderground v.1.15,2013-09-02 02:51:00,
2013-09-01 22:56:00,74.5,70.7,29.81,SSE,158,0.0,4.0,88,0.00,,,0.00,0,Wunderground v.1.15,2013-09-02 02:56:00,
2013-09-01 23:01:00,74.6,70.8,29.81,SSE,159,0.0,2.0,88,0.00,,,0.00,0,Wunderground v.1.15,2013-09-02 03:01:00,
2013-09-01 23:06:00,74.6,70.8,29.81,SSE,159,1.0,3.0,88,0.00,,,0.00,0,Wunderground v.1.15,2013-09-02 03:06:00,
2013-09-01 23:11:00,74.5,70.7,29.80,SSE,159,0.0,2.0,88,0.00,,,0.00,0,Wunderground v.1.15,2013-09-02 03:11:00,
2013-09-01 23:16:00,74.6,70.8,29.80,SSE,158,0.0,3.0,88,0.00,,,0.00,0,Wunderground v.1.15,2013-09-02 03:16:00,
2013-09-01 23:21:00,74.4,70.6,29.80,SSE,158,2.0,2.0,88,0.00,,,0.00,0,Wunderground v.1.15,2013-09-02 03:21:00,
2013-09-01 23:26:00,74.5,70.7,29.80,SSE,157,3.0,4.0,88,0.00,,,0.00,0,Wunderground v.1.15,2013-09-02 03:26:00,
2013-09-01 23:31:00,74.5,70.7,29.79,SSE,157,0.0,0.0,88,0.00,,,0.00,0,Wunderground v.1.15,2013-09-02 03:31:00,
2013-09-01 23:36:00,74.4,70.6,29.79,SSE,157,0.0,0.0,88,0.00,,,0.00,0,Wunderground v.1.15,2013-09-02 03:36:00,
2013-09-01 23:41:00,74.5,70.7,29.79,SSE,158,0.0,0.0,88,0.00,,,0.00,0,Wunderground v.1.15,2013-09-02 03:41:00,
2013-09-01 23:46:00,74.4,70.6,29.79,SSE,158,0.0,0.0,88,0.00,,,0.00,0,Wunderground v.1.15,2013-09-02 03:46:00,
2013-09-01 23:51:00,74.4,70.6,29.79,SSE,158,0.0,2.0,88,0.00,,,0.00,0,Wunderground v.1.15,2013-09-02 03:51:00,
2013-09-01 23:56:00,74.5,70.7,29.79,SSE,158,0.0,2.0,88,0.00,,,0.00,0,Wunderground v.1.15,2013-09-02 03:56:00,